ATLAS D DEB, 2329

Orbit data source: Space-Track

ATLAS D DEB, 2329 is space debris in LEO originally from a launch on Thu, 14 Jul 1966 UTC launched from the Air Force Western Test Range (AFWTR). Debris objects in space refer to the collection of defunct objects orbiting the Earth. Examples of debris include non-operational satellites, rocket bodies, and fragments generated from explosions, collisions, or faulty payload assembly.

Loading next visibility...
ATLAS D DEB details
Identifier
2329, 1966-063D
Orbit
LEO
Last TLE update1 day ago
Origin
Flag of USUSAF OAR (US)
ManufacturerGoodyear
MissionSpacecraft
Bus & MotorCONTAINER, Unknown motor
Mass2 kg wet, 2 kg dry
Launch date (UTC)
1966-07-14 (58 years ago)
Launch vehicleUnknown
Launch site
Air Force Western Test Range (AFWTR)
Object type
Payload
Rocket body
Debris
Shape & HBRHalf Cyl, 0.5 m
Radar Cross Section0.210 m², Medium (>0.1 m² and < 1m²)

Expand to show TLE details & history

TLE from 1 day ago
0 ATLAS D DEB
1 02329U 66063D   24355.56488545  .00001419  00000-0  89921-3 0  9998
2 02329 144.2840 229.4597 0021527 306.0325  87.4929 13.91480701946478
Epoch: 2024-12-20T13:33Z
Definitive object data (Epoch: 2024-12-20T13:33:26.102Z)
Latitude19.0027°
Longitude-91.98252°
Altitude921.349 km
Speed7.395 km/s
True Right ascension13h 24m 01s
True Declination18° 53' 58"
Sunlit
Object was in daylight at TLE epoch
Visualization TLE readout
Latitude22.25643°
Longitude156.137°
Altitude937.9 km
Speed7.379 km/s
Apparent Right ascension04h 00m 44s
Apparent Declination-7° 49' 27"
Sunlit
Object is in full shadow
Visualization observer readout
Local Sidereal Time13:12:46
Azimuth299.041° NW
Elevation-40.698°
Doppler factor1
Orbital elements
Apogee altitude942.125 km
Perigee altitude910.676 km
Semi-major axis7,304.537 km
Eccentricity0.0021527
Inclination144.284°
RAAN229.4597°
Arg. of periapsis306.0325°
True anomaly87.73937°
Mean anomaly87.4929°
Eccentric anomaly87.61613°
Mean motion3.4766 °/min
BSTAR0.00089921
Orbital period103.55 mins
Loading maneuver chart data...
Loading historical data...
Loading historical data...
Loading historical data...
Loading historical data...
Loading historical data...
Loading historical data...
Loading historical data...

ATLAS D DEB Visibility forecast

Observer location: undefined°, undefined

Span
Click to sort rows by Start time (UTC) header in descending order
Start Az.
Max El. time (UTC)
Max El. Az.
Max El.
End time (UTC)
End Az.
7 mins2024-12-22 07:17:40.929Z112.204° ESE2024-12-22 07:20:40.929Z149.71° SSE20.457°2024-12-22 07:24:40.929Z198.811° SSW
8 mins2024-12-22 08:55:40.929Z103.274° ESE2024-12-22 08:58:40.929Z151.689° SSE34.561°2024-12-22 09:03:40.929Z233.297° WSW
10 mins2024-12-22 10:32:40.929Z101.434° ESE2024-12-22 10:36:40.929Z155.707° SSE40.193°2024-12-22 10:42:40.929Z257.816° W
8 mins2024-12-22 12:11:40.929Z125.295° SE2024-12-22 12:14:40.929Z175.285° S37.004°2024-12-22 12:19:40.929Z263.34° W
7 mins2024-12-22 13:50:40.929Z163.754° S2024-12-22 13:53:40.929Z210.436° SW24.44°2024-12-22 13:57:40.929Z258.814° W
|